{"data":{"norad_id":66941,"epoch":"2026-09-20T10:36:00.336384Z","epoch_age_seconds":88826,"freshness":"FRESH","line1":"1 66941U 25286S   26263.44167056  .00023493  00000+0  70437-3 0  9995","line2":"2 66941  53.1580 169.6233 0001924  83.1669 276.9552 15.34394543 45296","mean_motion":15.34394543,"eccentricity":0.0001924,"inclination_deg":53.158,"raan_deg":169.6233,"arg_perigee_deg":83.1669,"mean_anomaly_deg":276.9552,"bstar":0.00070437,"rev_number":4529,"period_min":93.848091846349,"perigee_km":461.40327882636,"apogee_km":464.03564039201,"semimajor_km":6840.8564596092,"source":"CELESTRAK","updated_at":"2026-09-21T09:00:36.059089Z"}}